Theta_e
300 298 295 298 297 295 295 294 294 296 299 298 299 299 301 303 301 303 303 305 307 309 313 316 318 319 319 320 321 324 324 325 324 322 322 322 320 322 321 321 322 322 322 321
297 294 299 299 298 297 296 295 295 298 299 299 299 299 303 303 302 304 305 305 306 309 312 313 317 318 317 318 322 323 323 323 323 323 323 322 321 320 318 319 320 319 318 319
295 297 299 298 297 296 296 296 296 296 297 299 298 298 300 304 305 306 306 308 308 309 311 313 315 316 317 318 320 322 322 323 323 322 319 318 317 317 316 315 313 314 316 316
297 299 297 297 296 297 294 299 298 296 295 292 297 291 297 301 302 304 307 307 306 308 312 314 315 315 316 317 320 321 320 320 319 320 317 317 315 312 313 312 312 313 315 315
296 296 296 295 296 298 295 297 297 296 296 294 294 292 297 298 298 302 306 307 306 308 310 312 314 315 316 318 318 318 319 317 318 318 316 315 314 312 312 312 313 314 314 314
298 299 299 299 298 298 299 297 297 296 295 289 294 293 294 297 299 301 306 308 310 310 309 312 315 316 316 317 316 316 316 317 317 316 315 315 314 313 311 311 310 310 311 312
297 297 299 299 296 298 298 297 291 288 288 287 292 291 295 300 300 302 306 309 309 310 309 310 311 312 314 314 314 314 314 315 315 314 314 314 314 313 312 311 309 309 309 310
291 290 296 299 298 296 296 296 291 284 285 289 292 290 296 304 305 306 306 306 306 306 308 309 312 313 314 314 314 313 313 314 314 313 314 314 313 310 310 310 309 308 309 310
291 291 298 298 298 299 294 292 297 291 291 289 292 296 300 303 304 304 305 305 305 306 308 310 312 314 315 314 313 313 313 313 313 313 312 312 312 312 310 310 310 309 310 310
295 290 296 299 299 299 298 299 292 293 284 283 289 290 293 300 303 303 304 305 307 308 309 311 313 315 314 314 313 312 312 312 312 312 311 311 311 311 310 309 309 310 310 311
298 293 294 297 295 296 295 294 295 295 292 287 285 290 302 302 305 305 306 307 308 309 310 312 313 314 313 311 310 310 310 310 310 311 311 310 310 309 309 309 309 310 310 310
297 295 290 293 298 298 297 297 297 294 290 292 291 291 303 306 307 308 307 308 310 311 312 312 313 311 310 309 309 309 310 309 310 310 310 309 309 308 308 309 309 310 309 310
296 291 286 289 295 297 295 296 296 296 295 291 289 291 304 305 306 308 308 309 309 310 311 311 311 310 310 309 309 309 309 309 309 309 308 308 307 307 308 309 309 309 309 309
295 291 287 284 288 291 289 292 294 294 290 292 292 294 300 302 305 307 308 310 310 310 311 311 310 310 309 309 309 309 309 309 308 307 306 306 306 307 307 308 308 309 309 308
291 284 287 288 289 290 290 289 290 289 292 289 293 294 300 302 305 308 311 311 310 309 309 310 310 310 309 308 309 308 308 308 306 305 305 305 307 307 307 307 307 308 308 308
293 285 287 285 288 288 285 287 288 289 291 292 294 294 302 304 305 305 308 308 308 309 309 310 310 309 308 308 308 308 307 305 305 304 303 305 305 306 306 306 306 306 306 307
286 285 283 279 285 283 280 285 287 289 291 291 290 296 303 302 303 304 306 308 308 309 310 311 310 309 308 309 308 307 305 304 303 303 303 303 303 303 303 303 303 303 304 306
284 283 283 278 280 272 284 290 291 289 291 293 295 298 301 302 305 306 308 308 309 309 310 311 310 309 309 308 306 304 304 303 302 302 302 303 301 299 300 300 301 301 302 303
288 284 280 276 277 280 283 287 288 288 288 294 295 297 300 301 304 304 308 309 310 312 313 312 311 310 308 306 305 303 302 302 301 301 301 301 300 300 300 299 300 300 301 301
287 287 281 279 273 272 283 288 292 291 282 293 294 295 295 298 296 301 309 311 310 310 311 309 309 307 306 304 303 302 301 301 300 300 300 301 301 299 298 299 300 300 301 301
281 282 278 279 276 280 288 291 293 281 283 296 299 298 301 299 304 309 311 310 311 310 309 308 306 305 304 303 302 301 300 300 301 300 300 300 300 300 300 300 301 299 298 299
279 278 278 280 276 274 292 293 287 293 298 298 299 301 300 304 306 307 307 309 308 307 306 306 305 303 302 302 301 300 300 301 301 301 300 299 300 300 299 299 299 298 297 296
277 282 281 282 283 293 296 295 297 299 296 298 300 301 302 302 306 307 307 308 308 307 306 305 304 302 301 301 301 299 300 300 300 300 299 298 298 298 297 297 296 295 296 294
285 289 284 284 288 290 292 296 298 297 297 300 301 301 303 302 306 307 308 308 306 305 304 303 302 300 299 300 300 300 300 300 299 297 296 296 294 294 295 294 294 294 294 293
285 287 286 286 289 290 292 294 296 297 300 301 300 301 300 302 306 307 307 307 306 303 302 302 300 299 298 298 299 300 300 300 296 296 295 295 294 294 293 293 294 294 295 294
287 285 284 283 289 290 291 295 296 296 298 298 300 299 299 300 304 307 306 305 303 301 301 299 299 297 297 298 299 298 299 299 298 296 294 294 293 293 292 292 292 293 292 292
Wind_Speed
2 6 8 7 6 3 4 3 4 2 3 5 10 11 13 10 10 13 14 15 17 19 17 15 15 14 12 11 11 12 11 8 6 3 3 2 1 1 2 3 5 7 8 9
4 10 8 4 6 5 4 4 5 6 6 6 8 12 11 7 9 14 17 18 20 19 16 17 18 16 14 13 12 10 8 7 5 4 2 1 1 3 4 3 4 6 8 10
5 2 9 7 6 6 6 8 5 7 3 2 5 14 10 8 11 11 16 17 20 24 23 20 20 19 16 15 14 11 10 8 6 5 4 3 3 3 3 3 5 6 9 10
6 2 7 7 5 8 7 13 7 6 5 7 2 7 5 7 10 10 16 16 16 19 18 19 20 19 18 16 13 11 9 9 7 7 4 3 1 4 4 6 7 9 9 11
2 7 8 6 5 9 1 2 6 4 6 3 6 7 3 3 9 13 12 10 10 14 18 21 22 21 18 15 13 10 10 8 7 6 4 3 3 4 5 6 10 10 9 10
6 1 4 4 2 5 11 8 6 4 2 9 10 10 7 6 5 4 3 9 9 9 16 20 20 18 17 14 12 11 12 10 8 6 4 4 5 5 6 9 9 9 9 9
10 11 4 4 4 4 5 8 3 5 6 7 2 7 10 6 5 9 13 12 11 12 12 16 20 21 17 15 13 11 11 9 7 5 6 5 5 6 8 10 10 12 9 9
6 7 9 9 13 9 15 11 6 6 6 2 4 8 3 2 2 5 8 9 6 6 9 16 19 19 18 16 14 12 10 8 6 6 6 5 6 6 8 10 10 10 10 10
5 8 2 6 4 8 7 10 5 4 2 5 8 8 11 9 7 4 5 3 3 6 9 14 18 17 15 13 12 11 10 8 7 6 5 6 7 9 11 13 12 10 11 11
2 7 5 3 5 4 6 11 5 1 6 9 7 7 9 6 8 4 5 5 6 9 13 16 17 15 12 10 9 9 8 8 7 6 6 7 9 11 12 12 14 14 13 13
6 1 2 2 8 14 6 8 3 2 4 8 10 8 7 11 8 9 9 9 12 14 16 16 14 11 8 7 9 9 8 8 7 6 6 8 10 12 12 12 13 13 13 13
6 3 6 11 3 4 4 10 14 7 15 4 8 16 8 8 9 11 12 14 14 15 15 13 11 10 10 11 11 11 9 8 7 6 8 10 11 12 13 13 14 13 14 13
7 3 5 7 8 2 6 2 4 7 3 16 13 18 4 4 7 13 13 15 16 15 14 13 12 12 12 12 11 9 8 8 6 7 9 11 13 13 14 14 14 14 15 14
8 6 9 12 9 12 16 14 13 8 7 17 17 26 18 10 11 11 14 14 15 16 16 14 12 13 12 12 11 9 7 6 6 7 10 13 13 13 14 14 15 15 15 15
5 16 16 22 20 15 19 19 18 18 22 17 22 22 26 15 14 14 16 15 16 17 16 15 14 13 13 12 9 7 7 6 5 8 11 13 13 13 14 15 16 16 15 15
4 12 10 20 16 13 19 21 26 24 24 23 27 27 30 20 14 17 14 14 16 17 19 17 15 13 14 12 9 6 5 4 6 10 12 12 13 14 15 16 16 16 16 16
9 5 6 23 12 14 17 34 25 26 27 22 23 28 23 25 19 17 17 17 18 18 17 17 16 13 12 11 8 7 4 4 7 10 12 12 12 15 16 16 17 17 17 16
22 20 14 22 12 21 23 13 18 22 25 24 25 28 30 24 19 16 19 20 15 15 15 14 11 12 10 8 7 5 2 5 8 10 12 12 13 15 16 16 16 16 15 16
25 21 14 16 14 21 23 17 13 13 17 18 21 24 21 17 17 21 20 16 16 14 11 10 10 11 9 8 6 2 3 6 8 11 12 13 14 15 16 17 14 15 13 14
18 18 15 12 12 16 19 21 24 21 26 24 25 23 23 18 15 21 11 14 13 9 9 12 12 11 10 8 5 1 5 7 9 10 13 14 15 14 14 14 14 11 13 15
11 11 17 16 14 12 20 18 14 20 11 2 6 13 12 13 13 22 13 9 9 11 14 13 12 11 10 8 5 2 6 8 9 11 13 14 14 14 13 13 12 11 13 15
9 8 11 11 13 18 15 9 15 9 10 14 15 12 13 15 19 22 16 12 15 16 15 13 12 10 9 6 3 4 7 8 10 12 13 13 14 12 12 15 13 12 13 15
10 13 10 9 7 6 11 13 16 9 12 14 14 14 13 16 18 20 15 13 14 13 11 10 11 11 8 6 1 5 7 8 11 12 13 13 13 13 13 12 12 12 12 12
13 14 9 6 11 9 19 15 17 19 16 14 13 17 14 18 18 16 10 12 12 11 12 11 11 9 7 4 1 3 6 8 11 12 11 10 11 12 12 10 10 11 11 10
12 9 10 18 16 15 23 22 18 15 13 13 15 15 16 15 19 15 11 12 11 12 12 10 9 8 6 4 3 4 6 8 9 10 11 11 10 11 11 11 9 10 11 11
15 21 14 17 10 14 18 17 17 16 14 18 16 15 17 14 20 13 10 9 11 12 12 10 9 8 6 4 2 4 5 8 9 10 9 9 9 8 10 10 10 11 14 18
Wind_Direction
52 219 222 215 191 125 128 166 199 207 176 224 231 242 248 214 211 217 217 212 210 208 204 196 194 190 183 184 180 177 175 166 162 167 161 165 214 295 298 315 319 317 316 313
175 238 223 179 172 184 196 215 223 268 233 220 244 251 252 210 220 217 219 217 217 217 194 195 193 192 191 185 188 178 176 173 179 174 147 186 224 237 290 297 301 312 307 301
223 85 142 181 180 187 201 213 209 239 140 226 283 263 238 239 236 229 229 225 219 214 205 195 191 194 188 189 188 185 179 177 179 174 158 191 213 223 254 314 314 325 306 302
246 162 208 176 188 198 233 211 226 206 207 246 299 277 238 236 239 233 238 222 225 219 219 206 194 191 191 189 186 181 177 182 182 186 183 205 294 319 332 318 320 315 312 301
172 170 174 200 242 188 218 121 204 174 209 255 191 258 231 236 239 242 245 260 240 231 224 215 201 193 186 182 182 178 181 189 190 186 200 247 307 304 309 319 316 313 309 301
265 184 214 240 101 203 145 104 73 75 162 249 227 233 244 226 221 201 257 279 274 241 226 216 202 187 178 179 179 180 187 193 192 192 205 248 279 296 310 317 310 310 311 303
229 230 216 193 204 115 202 161 162 208 206 248 142 219 269 256 247 270 298 294 288 274 242 203 188 180 174 183 190 188 193 198 200 216 241 263 281 296 301 306 307 309 303 297
244 246 188 177 210 201 204 214 197 214 214 223 147 235 220 195 215 267 278 292 291 241 210 197 192 176 176 189 192 193 192 206 211 238 266 287 296 300 301 298 301 295 294 291
209 235 257 208 149 187 157 209 252 248 88 250 237 246 269 238 231 249 273 259 224 192 184 180 175 173 187 192 194 194 198 211 227 251 277 287 293 298 299 298 296 292 287 281
41 279 228 247 144 85 222 144 163 158 237 241 221 252 241 226 209 206 208 204 176 172 171 169 174 189 197 195 189 192 202 222 239 260 271 284 297 297 296 294 291 287 282 281
2 220 207 266 212 232 178 215 212 234 244 249 269 254 204 234 225 199 199 190 175 175 176 183 194 197 200 195 196 196 209 229 245 256 272 285 297 299 297 291 287 284 285 282
18 299 250 254 298 355 312 262 221 213 221 241 271 264 177 216 200 194 197 195 195 195 199 204 204 205 203 200 199 201 213 233 250 267 282 295 298 297 294 289 288 288 284 283
354 229 276 237 228 230 243 354 342 308 260 235 235 260 163 229 202 210 208 204 206 213 217 219 220 218 214 209 206 211 217 235 251 271 292 296 294 293 293 290 289 288 286 282
334 252 251 259 284 315 283 285 296 299 276 252 240 261 250 217 218 212 218 222 215 214 220 226 227 222 216 210 207 213 227 236 259 286 293 290 290 294 293 290 288 286 286 287
269 263 266 265 268 264 276 281 275 263 260 261 267 271 271 265 241 233 224 221 225 221 216 222 226 219 210 207 205 210 226 234 278 292 290 290 295 294 291 290 290 290 289 286
265 258 260 261 257 268 277 271 260 261 262 263 265 269 268 279 271 247 232 225 230 233 228 228 225 214 207 202 203 205 221 266 303 297 295 301 301 296 294 292 294 294 292 290
291 269 257 261 264 280 267 246 257 257 257 254 259 263 278 274 261 248 242 237 239 239 234 233 224 213 198 195 187 194 210 288 290 295 299 300 300 297 297 296 297 295 296 295
242 248 254 265 274 254 247 271 258 252 252 254 254 256 267 272 283 262 247 247 241 243 239 236 222 197 181 164 160 159 219 288 297 300 299 300 303 296 294 295 296 297 299 295
220 224 236 240 240 254 272 256 249 245 263 259 257 266 282 302 305 266 243 232 235 239 239 223 195 166 151 153 142 157 283 294 299 298 302 302 299 300 302 299 301 300 296 293
226 225 229 235 239 246 254 256 253 262 269 259 273 269 274 289 269 264 274 230 238 229 189 160 146 135 139 140 138 224 295 298 298 308 303 298 303 301 295 297 299 300 299 292
253 218 228 238 246 262 271 280 271 234 253 269 288 287 286 278 276 281 293 235 209 172 150 139 144 141 138 139 146 273 295 299 313 305 301 303 300 299 300 299 301 308 302 298
254 255 240 238 246 259 240 237 222 260 289 301 296 294 302 306 300 289 264 204 169 159 147 147 139 136 133 131 147 294 299 317 309 304 301 304 306 310 311 310 310 309 302 304
237 222 245 228 249 297 304 302 302 294 295 296 301 305 293 290 296 283 256 192 165 153 145 143 139 134 133 139 156 303 316 317 308 300 302 311 315 319 319 315 315 315 312 313
245 246 232 271 248 250 289 288 277 289 273 274 294 302 301 294 299 279 222 174 155 148 144 141 137 136 137 137 87 306 316 306 301 309 314 318 326 324 321 322 322 317 314 313
254 266 246 255 264 278 268 270 282 293 268 270 292 302 303 315 296 253 204 175 152 142 136 141 137 138 128 111 59 347 311 306 317 320 325 333 336 335 330 330 319 313 310 307
245 247 241 257 267 266 277 279 282 286 275 289 283 303 295 305 290 216 175 164 146 137 135 138 130 124 116 103 54 329 319 319 320 325 340 346 340 339 335 328 322 304 291 302